Flag for United Kingdom Weather past 2 weeks in London, England, United Kingdom

50 °F

Passing clouds.

Feels Like: 44 °F
Forecast: N/A
Wind: 20 mph from West

Location: Northolt

Current Time: Nov 28, 2015 at 11:03:49 PM

Latest Report: Nov 28, 2015 at 9:50 PM

Visibility: N/A

Pressure: 29.68 "Hg

Humidity: 76%

Dew point: 43 °F

Location of LondonLocation

Historic Weather in London — Graph


London temperature yesterday

Maximum temperature yesterday: 57 °F (at 11:50 AM)
Minimum temperature yesterday: 41 °F (at 11:50 PM)
Average temperature yesterday: 51 °F

Past Weeks' High & Low Weather Summary

High61 °F (Nov 15, 9:50 AM)100% (Nov 16, 10:50 PM)30.30 "Hg (Nov 16, 10:50 PM)
Low25 °F (Nov 22, 3:50 AM)56% (Nov 21, 2:50 PM)29.50 "Hg (Nov 17, 2:50 PM)
Average48 °F81%29.90 "Hg
* Reported Nov 13 8:52 PM — Nov 28 8:50 PM, London, Weather by CustomWeather, © 2015

Note: Actual official high and low records may vary slightly from our data, if they occured in-between our weather recording intervals... More about our weather records


London weather history for previous 24 hours

Time TempWeatherWind HumidityBarometerVisibility
8:50 PM
Sat, Nov 28
50 °FPassing clouds.18 mph82%29.68 "HgN/A
7:50 PM50 °FMostly cloudy.23 mph76%29.68 "HgN/A
6:50 PM50 °FLight rain. Passing clouds.22 mph76%29.71 "HgN/A
5:50 PM50 °FLight rain. Partly cloudy.21 mph71%29.71 "HgN/A
4:50 PM48 °FLight rain. Passing clouds.17 mph76%29.71 "HgN/A
3:50 PM48 °FBroken clouds.18 mph71%29.77 "HgN/A
2:50 PM48 °FBroken clouds.18 mph71%29.80 "HgN/A
1:50 PM48 °FLight rain. Broken clouds.20 mph66%29.83 "HgN/A
12:50 PM48 °FBroken clouds.16 mph66%29.86 "HgN/A
11:50 AM46 °FMore clouds than sun.14 mph71%29.92 "HgN/A
10:50 AM45 °FSunny.14 mph71%29.92 "Hg10 mi
9:50 AM43 °FSunny.13 mph76%29.95 "Hg10 mi
8:50 AM39 °FSunny.5 mph75%29.98 "Hg10 mi
7:50 AM36 °FSunny.5 mph87%29.98 "Hg10 mi
6:50 AM36 °FPassing clouds.8 mph87%29.98 "HgN/A
5:50 AM37 °FClear.9 mph81%29.95 "Hg10 mi
4:50 AM37 °FPassing clouds.9 mph81%29.95 "HgN/A
2:50 AM37 °FPassing clouds.8 mph81%29.92 "HgN/A
1:50 AM39 °FClear.9 mph81%29.89 "Hg10 mi
12:50 AM39 °FClear.9 mph81%29.89 "Hg10 mi
11:50 PM
Fri, Nov 27
41 °FClear.10 mph81%29.86 "Hg10 mi
Weather by CustomWeather, © 2015

See weather overviewHow to use our weather pages